TimeAKST,TemperatureF,Dew PointF,Humidity,Sea Level PressureIn,VisibilityMPH,Wind Direction,Wind SpeedMPH,Gust SpeedMPH,PrecipitationIn,Events,Conditions,WindDirDegrees,DateUTC
12:55 AM,-26.1,-29.9,82,30.09,10.0,Calm,Calm,-,N/A,,Scattered Clouds,0,2012-11-21 09:55:00
1:55 AM,-24.9,-29.9,77,30.08,10.0,Calm,Calm,-,N/A,,Scattered Clouds,0,2012-11-21 10:55:00
2:55 AM,-20.4,-26.7,73,30.08,10.0,Calm,Calm,-,N/A,,Overcast,0,2012-11-21 11:55:00
3:55 AM,-18.9,-25.4,72,30.08,10.0,Calm,Calm,-,N/A,,Overcast,0,2012-11-21 12:55:00
4:55 AM,-17.7,-23.8,74,30.09,10.0,Calm,Calm,-,N/A,,Overcast,0,2012-11-21 13:55:00
5:55 AM,-15.3,-20.9,76,30.09,10.0,Calm,Calm,-,N/A,,Overcast,0,2012-11-21 14:55:00
6:55 AM,-13.0,-18.8,75,30.09,10.0,Calm,Calm,-,N/A,,Overcast,0,2012-11-21 15:55:00
7:55 AM,-11.6,-17.1,76,30.10,10.0,Calm,Calm,-,N/A,,Overcast,0,2012-11-21 16:55:00
8:55 AM,-10.3,-15.9,76,30.10,10.0,Calm,Calm,-,N/A,,Overcast,0,2012-11-21 17:55:00
9:55 AM,-9.6,-15.2,76,30.10,10.0,Calm,Calm,-,N/A,,Overcast,0,2012-11-21 18:55:00
10:55 AM,-8.5,-14.3,76,30.11,10.0,Calm,Calm,-,N/A,,Overcast,0,2012-11-21 19:55:00
11:55 AM,-7.2,-13.2,75,30.12,10.0,Calm,Calm,-,N/A,,Overcast,0,2012-11-21 20:55:00
12:55 PM,-6.9,-12.8,75,30.12,10.0,Calm,Calm,-,N/A,,Overcast,0,2012-11-21 21:55:00
1:55 PM,-6.5,-12.5,75,30.12,10.0,Calm,Calm,-,N/A,,Overcast,0,2012-11-21 22:55:00
2:55 PM,-6.9,-12.5,77,30.12,10.0,Calm,Calm,-,N/A,,Overcast,0,2012-11-21 23:55:00
3:55 PM,-10.3,-15.5,78,30.12,10.0,Calm,Calm,-,N/A,,Mostly Cloudy,0,2012-11-22 00:55:00
4:55 PM,-11.7,-17.1,77,30.12,10.0,Calm,Calm,-,N/A,,Overcast,0,2012-11-22 01:55:00
5:55 PM,-13.9,-19.5,76,30.14,10.0,Calm,Calm,-,N/A,,Overcast,0,2012-11-22 02:55:00
6:55 PM,-13.2,-18.9,75,30.14,10.0,Calm,Calm,-,N/A,,Overcast,0,2012-11-22 03:55:00
7:55 PM,-13.9,-19.7,75,30.15,10.0,Calm,Calm,-,N/A,,Overcast,0,2012-11-22 04:55:00
8:55 PM,-12.3,-18.2,75,30.15,10.0,Calm,Calm,-,N/A,,Overcast,0,2012-11-22 05:55:00
9:55 PM,-11.0,-16.8,76,30.17,10.0,Calm,Calm,-,N/A,,Overcast,0,2012-11-22 06:55:00
10:55 PM,-9.2,-15.2,75,30.17,10.0,Calm,Calm,-,N/A,,Overcast,0,2012-11-22 07:55:00
11:55 PM,-7.6,-13.0,77,30.17,10.0,Calm,Calm,-,N/A,,Overcast,0,2012-11-22 08:55:00